{"data":{"norad_id":64018,"intl_designator":"2025-101AA","name":"STARLINK-34162","alt_names":[],"object_type":"PAYLOAD","status":"ACTIVE","operator":null,"country":"US","launch_date":"2025-05-14","launch_site_code":"AFETR","launch_vehicle":null,"mission":null,"orbit_class":"UNKNOWN","rcs_meters":null,"size_class":null,"mass_kg":null,"dimensions":null,"purposes":["comms"],"wikipedia_slug":null,"has_3d_model":false,"image_url":null,"decayed_at":null,"tle_current":{"epoch":"2026-05-25T04:00:03.998880Z","epoch_age_seconds":56701,"freshness":"FRESH","line1":"1 64018U 25101AA  26145.16671295 -.00007972  00000+0 -28043-3 0  9999","line2":"2 64018  43.0025 286.0872 0001791 264.7203   1.4122 15.27582715  5693","mean_motion":15.27582715,"eccentricity":0.0001791,"inclination_deg":43.0025,"raan_deg":286.0872,"arg_perigee_deg":264.7203,"mean_anomaly_deg":1.4122,"bstar":-0.00028043,"rev_number":569,"period_min":94.266581171678,"perigee_km":481.8121293912,"apogee_km":484.26980333875,"semimajor_km":6861.177966365,"source":"CELESTRAK","updated_at":"2026-05-25T13:38:20.223123Z"}}}